TimeCDT,TemperatureF,Dew PointF,Humidity,Sea Level PressureIn,VisibilityMPH,Wind Direction,Wind SpeedMPH,Gust SpeedMPH,PrecipitationIn,Events,Conditions,WindDirDegrees,DateUTC
12:54 AM,51.1,42.1,71,30.22,10.0,West,4.6,-,N/A,,Clear,280,2012-10-12 05:54:00
1:54 AM,48.9,43.0,80,30.24,10.0,North,3.5,-,N/A,,Clear,350,2012-10-12 06:54:00
2:54 AM,48.9,43.0,80,30.26,10.0,NNE,13.8,-,N/A,,Clear,30,2012-10-12 07:54:00
3:54 AM,46.0,42.1,86,30.27,10.0,NNE,12.7,-,N/A,,Clear,30,2012-10-12 08:54:00
4:54 AM,44.1,37.0,76,30.28,10.0,NNE,13.8,-,N/A,,Clear,30,2012-10-12 09:54:00
5:54 AM,43.0,37.0,80,30.31,10.0,NNE,12.7,-,N/A,,Clear,30,2012-10-12 10:54:00
6:54 AM,44.1,37.9,79,30.34,10.0,NNE,12.7,-,N/A,,Mostly Cloudy,30,2012-10-12 11:54:00
7:54 AM,45.0,39.0,80,30.37,10.0,NE,12.7,20.7,N/A,,Mostly Cloudy,40,2012-10-12 12:54:00
8:54 AM,46.9,39.9,77,30.39,10.0,NE,13.8,-,N/A,,Clear,40,2012-10-12 13:54:00
9:54 AM,51.1,41.0,68,30.40,10.0,ENE,19.6,27.6,N/A,,Clear,60,2012-10-12 14:54:00
10:54 AM,54.0,42.1,64,30.40,10.0,ENE,20.7,25.3,N/A,,Clear,60,2012-10-12 15:54:00
11:54 AM,55.9,39.9,55,30.39,10.0,East,13.8,-,N/A,,Clear,80,2012-10-12 16:54:00
12:54 PM,57.9,41.0,53,30.38,10.0,ENE,13.8,-,N/A,,Clear,60,2012-10-12 17:54:00
1:54 PM,60.1,42.1,51,30.37,10.0,East,11.5,-,N/A,,Clear,90,2012-10-12 18:54:00
2:54 PM,60.1,39.9,47,30.34,10.0,ESE,5.8,-,N/A,,Clear,110,2012-10-12 19:54:00
3:54 PM,62.1,42.1,48,30.32,10.0,SE,10.4,-,N/A,,Clear,130,2012-10-12 20:54:00
5:54 PM,57.9,42.1,56,30.30,10.0,ESE,8.1,-,N/A,,Clear,110,2012-10-12 22:54:00
6:54 PM,50.0,42.1,74,30.29,9.0,East,6.9,-,N/A,,Clear,100,2012-10-12 23:54:00
7:54 PM,48.9,41.0,74,30.29,10.0,ESE,3.5,-,N/A,,Clear,110,2012-10-13 00:54:00
9:54 PM,48.9,42.1,77,30.28,10.0,ESE,6.9,-,N/A,,Clear,120,2012-10-13 02:54:00
10:54 PM,50.0,43.0,77,30.27,10.0,ESE,6.9,-,N/A,,Clear,120,2012-10-13 03:54:00
11:54 PM,50.0,43.0,77,30.25,10.0,SE,9.2,-,N/A,,Clear,130,2012-10-13 04:54:00